When you browse on this site, cookies collect data to enhance your experience and personalize the content and advertising you see.
Visit our Privacy Policy to learn more. By continuing to use the site, you agree to this use of cookies and data.
  • In Lithuania
  • List of Countries
  • For 7 days
  • Water Temperature
  • Satellite Maps
  • Weather Map
  • Weather Widgets
  • user-avatar
    Login

    Hourly Weather Takeo

    Today, 16 July, Tuesday

    Time Temperature Precipitation Wind Pressure Humidity
    00:00 +29°C° 0 mm 2 mps 753 mmHg 80%
    01:00 +29°C° 0 mm 2 mps 753 mmHg 80%
    02:00 +28°C° 0 mm 2 mps 753 mmHg 81%
    03:00 +28°C° 0 mm 2 mps 753 mmHg 82%
    04:00 +28°C° 0 mm 2 mps 753 mmHg 83%
    05:00 +28°C° 0 mm 2 mps 753 mmHg 82%
    06:00 +29°C° 0 mm 2 mps 753 mmHg 81%
    07:00 +29°C° 0 mm 1 mps 754 mmHg 82%
    08:00 +31°C° 0 mm 2 mps 754 mmHg 74%
    09:00 +34°C° 0 mm 3 mps 754 mmHg 66%
    10:00 +35°C° 0 mm 3 mps 754 mmHg 58%
    11:00 +36°C° 0.1 mm 3 mps 753 mmHg 56%
    12:00 +37°C° 0.1 mm 3 mps 753 mmHg 53%
    13:00 +37°C° 0.1 mm 3 mps 752 mmHg 50%
    14:00 +37°C° 1.5 mm 4 mps 752 mmHg 54%
    15:00 +36°C° 1.5 mm 5 mps 752 mmHg 59%
    16:00 +35°C° 1.5 mm 6 mps 751 mmHg 63%
    17:00 +33°C° 2 mm 6 mps 751 mmHg 68%
    18:00 +32°C° 2 mm 5 mps 752 mmHg 74%
    19:00 +30°C° 2 mm 5 mps 752 mmHg 79%
    20:00 +29°C° 0.1 mm 5 mps 753 mmHg 80%
    21:00 +29°C° 0.1 mm 4 mps 753 mmHg 81%
    22:00 +29°C° 0.1 mm 3 mps 753 mmHg 82%
    23:00 +29°C° 0 mm 3 mps 753 mmHg 82%

    Tomorrow, 17 July, Wednesday

    Time Temperature Precipitation Wind Pressure Humidity
    00:00 +29°C° 0 mm 3 mps 753 mmHg 82%
    01:00 +29°C° 0 mm 3 mps 753 mmHg 82%
    02:00 +29°C° 0.1 mm 3 mps 753 mmHg 83%
    03:00 +28°C° 0.1 mm 3 mps 753 mmHg 84%
    04:00 +28°C° 0.1 mm 3 mps 752 mmHg 85%
    05:00 +28°C° 0 mm 3 mps 752 mmHg 84%
    06:00 +29°C° 0 mm 3 mps 753 mmHg 83%
    07:00 +29°C° 0 mm 3 mps 753 mmHg 81%
    08:00 +30°C° 0 mm 4 mps 753 mmHg 75%
    09:00 +33°C° 0 mm 5 mps 753 mmHg 69%
    10:00 +34°C° 0 mm 6 mps 753 mmHg 63%
    11:00 +34°C° 0.9 mm 6 mps 753 mmHg 62%
    12:00 +35°C° 0.9 mm 6 mps 752 mmHg 61%
    13:00 +35°C° 0.9 mm 6 mps 752 mmHg 61%
    14:00 +35°C° 1.5 mm 6 mps 751 mmHg 63%
    15:00 +34°C° 1.5 mm 7 mps 751 mmHg 66%
    16:00 +33°C° 1.5 mm 7 mps 750 mmHg 68%
    17:00 +32°C° 0 mm 6 mps 751 mmHg 72%
    18:00 +30°C° 0 mm 5 mps 752 mmHg 76%
    19:00 +29°C° 0 mm 4 mps 752 mmHg 80%
    20:00 +29°C° 0 mm 4 mps 753 mmHg 80%
    21:00 +28°C° 0 mm 4 mps 753 mmHg 80%
    22:00 +28°C° 0 mm 4 mps 754 mmHg 81%
    23:00 +28°C° 0.1 mm 3 mps 754 mmHg 82%

    Day after tomorrow, 18 July, Thursday

    Time Temperature Precipitation Wind Pressure Humidity
    00:00 +28°C° 0.1 mm 3 mps 753 mmHg 83%
    01:00 +28°C° 0.1 mm 3 mps 753 mmHg 84%
    02:00 +28°C° 0.2 mm 3 mps 753 mmHg 85%
    03:00 +28°C° 0.2 mm 3 mps 752 mmHg 85%
    04:00 +28°C° 0.2 mm 3 mps 752 mmHg 86%
    05:00 +28°C° 0 mm 3 mps 752 mmHg 86%
    06:00 +28°C° 0 mm 3 mps 753 mmHg 86%
    07:00 +28°C° 0 mm 3 mps 753 mmHg 86%
    08:00 +28°C° 0.2 mm 3 mps 753 mmHg 85%
    09:00 +28°C° 0.2 mm 4 mps 753 mmHg 84%
    10:00 +28°C° 0.2 mm 4 mps 754 mmHg 83%
    11:00 +29°C° 0 mm 4 mps 753 mmHg 79%
    12:00 +30°C° 0 mm 5 mps 753 mmHg 76%
    13:00 +30°C° 0 mm 5 mps 752 mmHg 72%
    14:00 +32°C° 0 mm 5 mps 752 mmHg 70%
    15:00 +32°C° 0 mm 5 mps 751 mmHg 68%
    16:00 +33°C° 0 mm 6 mps 751 mmHg 66%
    17:00 +32°C° 0 mm 5 mps 751 mmHg 70%
    18:00 +30°C° 0 mm 4 mps 752 mmHg 74%
    19:00 +29°C° 0 mm 4 mps 752 mmHg 77%
    20:00 +29°C° 0 mm 4 mps 753 mmHg 78%
    21:00 +28°C° 0 mm 4 mps 753 mmHg 79%
    22:00 +28°C° 0 mm 4 mps 754 mmHg 80%
    23:00 +28°C° 0 mm 4 mps 753 mmHg 81%

    19 July, Friday

    Time Temperature Precipitation Wind Pressure Humidity
    00:00 +28°C° 0 mm 4 mps 753 mmHg 83%
    01:00 +28°C° 0 mm 4 mps 753 mmHg 84%
    02:00 +27°C° 0 mm 3 mps 753 mmHg 85%
    03:00 +27°C° 0 mm 3 mps 752 mmHg 86%
    04:00 +27°C° 0 mm 3 mps 752 mmHg 87%
    05:00 +27°C° 0 mm 2 mps 752 mmHg 87%
    06:00 +27°C° 0 mm 2 mps 753 mmHg 87%
    07:00 +28°C° 0 mm 2 mps 753 mmHg 87%
    08:00 +28°C° 0 mm 2 mps 754 mmHg 86%
    09:00 +28°C° 0 mm 2 mps 754 mmHg 84%
    10:00 +29°C° 0 mm 3 mps 754 mmHg 82%
    11:00 +29°C° 0 mm 3 mps 754 mmHg 78%
    12:00 +30°C° 0 mm 4 mps 753 mmHg 75%
    13:00 +32°C° 0 mm 5 mps 753 mmHg 71%
    14:00 +30°C° 0 mm 5 mps 752 mmHg 73%
    15:00 +30°C° 0 mm 4 mps 752 mmHg 75%
    16:00 +29°C° 0 mm 4 mps 752 mmHg 77%
    17:00 +29°C° 0 mm 4 mps 752 mmHg 78%
    18:00 +28°C° 0 mm 3 mps 752 mmHg 80%
    19:00 +28°C° 0 mm 2 mps 753 mmHg 82%
    20:00 +28°C° 0 mm 3 mps 753 mmHg 82%
    21:00 +28°C° 0 mm 3 mps 753 mmHg 82%
    22:00 +28°C° 0 mm 3 mps 754 mmHg 83%
    23:00 +27°C° 0 mm 3 mps 754 mmHg 84%

    20 July, Saturday

    Time Temperature Precipitation Wind Pressure Humidity
    00:00 +27°C° 0 mm 2 mps 753 mmHg 85%
    01:00 +27°C° 0 mm 2 mps 753 mmHg 86%
    02:00 +27°C° 0.9 mm 3 mps 753 mmHg 87%
    03:00 +27°C° 0.9 mm 3 mps 753 mmHg 88%
    04:00 +27°C° 0.9 mm 3 mps 752 mmHg 88%
    05:00 +27°C° 0.2 mm 3 mps 753 mmHg 89%
    06:00 +27°C° 0.2 mm 3 mps 753 mmHg 89%
    07:00 +27°C° 0.2 mm 4 mps 753 mmHg 89%
    08:00 +28°C° 0.7 mm 4 mps 754 mmHg 88%
    09:00 +28°C° 0.7 mm 5 mps 754 mmHg 87%
    10:00 +28°C° 0.7 mm 5 mps 754 mmHg 86%
    11:00 +28°C° 2.2 mm 5 mps 754 mmHg 87%
    12:00 +28°C° 2.2 mm 6 mps 753 mmHg 88%
    13:00 +28°C° 2.2 mm 6 mps 753 mmHg 89%
    14:00 +28°C° 0.7 mm 6 mps 752 mmHg 89%
    15:00 +28°C° 0.7 mm 5 mps 752 mmHg 88%
    16:00 +28°C° 0.7 mm 5 mps 752 mmHg 88%
    17:00 +27°C° 0.2 mm 4 mps 752 mmHg 89%
    18:00 +27°C° 0.2 mm 4 mps 752 mmHg 90%
    19:00 +27°C° 0.2 mm 3 mps 753 mmHg 90%
    20:00 +27°C° 0 mm 3 mps 753 mmHg 90%
    21:00 +27°C° 0 mm 3 mps 754 mmHg 91%
    22:00 +27°C° 0 mm 3 mps 754 mmHg 91%
    23:00 +27°C° 0 mm 3 mps 754 mmHg 90%

    21 July, Sunday

    Time Temperature Precipitation Wind Pressure Humidity
    00:00 +27°C° 0 mm 3 mps 754 mmHg 90%
    01:00 +27°C° 0 mm 3 mps 753 mmHg 90%
    02:00 +27°C° 0 mm 3 mps 753 mmHg 90%
    03:00 +27°C° 0 mm 2 mps 753 mmHg 89%
    04:00 +27°C° 0 mm 2 mps 753 mmHg 89%
    05:00 +27°C° 1.1 mm 2 mps 753 mmHg 89%
    06:00 +27°C° 1.1 mm 2 mps 754 mmHg 88%
    07:00 +27°C° 1.1 mm 2 mps 754 mmHg 87%
    08:00 +28°C° 0 mm 3 mps 754 mmHg 84%
    09:00 +29°C° 0 mm 3 mps 754 mmHg 81%
    10:00 +29°C° 0 mm 3 mps 754 mmHg 78%
    11:00 +29°C° 0.1 mm 3 mps 754 mmHg 80%
    12:00 +29°C° 0.1 mm 3 mps 754 mmHg 81%
    13:00 +29°C° 0.1 mm 2 mps 753 mmHg 83%
    14:00 +29°C° 0.5 mm 3 mps 753 mmHg 80%
    15:00 +30°C° 0.5 mm 4 mps 752 mmHg 78%
    16:00 +32°C° 0.5 mm 5 mps 752 mmHg 75%
    17:00 +30°C° 0.5 mm 5 mps 752 mmHg 78%
    18:00 +29°C° 0.5 mm 4 mps 753 mmHg 81%
    19:00 +28°C° 0.5 mm 4 mps 753 mmHg 85%
    20:00 +28°C° 0 mm 3 mps 753 mmHg 85%
    21:00 +28°C° 0 mm 3 mps 754 mmHg 86%
    22:00 +28°C° 0 mm 2 mps 754 mmHg 87%
    23:00 +28°C° 0 mm 2 mps 754 mmHg 87%
    Show more